Time,TemperatureF,DewpointF,PressureIn,WindDirection,WindDirectionDegrees,WindSpeedMPH,WindSpeedGustMPH,Humidity,HourlyPrecipIn,Conditions,Clouds,dailyrainin,SoftwareType,DateUTC
2013-12-06 11:22:00,4.0,1.0,-100.00,NW,320,0.0,0.0,87,0.00,,,0.00,,2013-12-06 20:22:00,
2013-12-06 11:32:00,4.0,1.0,-100.00,NW,320,0.0,0.0,87,0.00,,,0.00,,2013-12-06 20:32:00,
2013-12-06 12:21:00,7.0,4.0,-100.00,WSW,245,0.0,1.0,88,0.00,,,0.00,,2013-12-06 21:21:00,
2013-12-06 12:33:00,7.0,4.0,-100.00,WSW,245,0.0,1.0,88,0.00,,,0.00,,2013-12-06 21:33:00,
2013-12-06 12:43:00,7.0,4.0,-100.00,WSW,245,0.0,1.0,88,0.00,,,0.00,,2013-12-06 21:43:00,
2013-12-06 12:53:00,9.0,7.0,-100.00,WNW,290,0.0,2.0,89,0.00,,,0.00,,2013-12-06 21:53:00,
2013-12-06 13:03:00,9.0,7.0,-100.00,WNW,290,0.0,2.0,89,0.00,,,0.00,,2013-12-06 22:03:00,
2013-12-06 13:13:00,9.0,7.0,-100.00,WNW,290,0.0,2.0,89,0.00,,,0.00,,2013-12-06 22:13:00,
2013-12-06 13:20:00,11.0,9.0,-100.00,NNW,330,0.0,1.0,89,0.00,,,0.00,,2013-12-06 22:20:00,
2013-12-06 13:23:00,11.0,8.0,-100.00,West,260,0.0,2.0,89,0.00,,,0.00,,2013-12-06 22:23:00,
2013-12-06 13:33:00,11.0,8.0,-100.00,West,260,0.0,2.0,89,0.00,,,0.00,,2013-12-06 22:33:00,
2013-12-06 13:42:00,11.0,8.0,-100.00,West,260,0.0,2.0,89,0.00,,,0.00,,2013-12-06 22:42:00,
2013-12-06 13:53:00,11.0,9.0,-100.00,NNW,330,0.0,1.0,89,0.00,,,0.00,,2013-12-06 22:53:00,
2013-12-06 14:02:00,11.0,9.0,-100.00,NNW,330,0.0,1.0,89,0.00,,,0.00,,2013-12-06 23:02:00,
2013-12-06 14:12:00,11.0,9.0,-100.00,NNW,330,0.0,1.0,89,0.00,,,0.00,,2013-12-06 23:12:00,
2013-12-06 14:52:00,13.0,10.0,-100.00,West,270,0.0,0.0,90,0.00,,,0.00,,2013-12-06 23:52:00,
2013-12-06 15:02:00,13.0,10.0,-100.00,West,270,0.0,0.0,90,0.00,,,0.00,,2013-12-07 00:02:00,
2013-12-06 15:11:00,13.0,10.0,-100.00,West,270,0.0,0.0,90,0.00,,,0.00,,2013-12-07 00:11:00,
2013-12-06 15:20:00,13.0,10.0,-100.00,North,5,0.0,0.0,90,0.00,,,0.00,,2013-12-07 00:20:00,
2013-12-06 15:21:00,13.0,11.0,-100.00,North,5,0.0,0.0,90,0.00,,,0.00,,2013-12-07 00:21:00,
2013-12-06 15:32:00,13.0,11.0,-100.00,North,5,0.0,0.0,90,0.00,,,0.00,,2013-12-07 00:32:00,
2013-12-06 15:42:00,13.0,11.0,-100.00,North,5,0.0,0.0,90,0.00,,,0.00,,2013-12-07 00:42:00,
2013-12-06 15:52:00,13.0,10.0,-100.00,North,5,0.0,0.0,90,0.00,,,0.00,,2013-12-07 00:52:00,
2013-12-06 16:02:00,13.0,10.0,-100.00,North,5,0.0,0.0,90,0.00,,,0.00,,2013-12-07 01:02:00,
2013-12-06 16:11:00,13.0,10.0,-100.00,North,5,0.0,0.0,90,0.00,,,0.00,,2013-12-07 01:11:00,
2013-12-06 16:52:00,12.0,10.0,-100.00,ENE,60,0.0,0.0,90,0.00,,,0.00,,2013-12-07 01:52:00,
2013-12-06 17:01:00,12.0,10.0,-100.00,ENE,60,0.0,0.0,90,0.00,,,0.00,,2013-12-07 02:01:00,
2013-12-06 17:11:00,12.0,10.0,-100.00,ENE,60,0.0,0.0,90,0.00,,,0.00,,2013-12-07 02:11:00,
2013-12-06 18:22:00,11.0,8.0,-100.00,West,265,0.0,1.0,90,0.00,,,0.00,,2013-12-07 03:22:00,
2013-12-06 18:33:00,11.0,8.0,-100.00,West,265,0.0,1.0,90,0.00,,,0.00,,2013-12-07 03:33:00,
2013-12-06 18:53:00,10.0,8.0,-100.00,North,355,0.0,0.0,90,0.00,,,0.00,,2013-12-07 03:53:00,
2013-12-06 19:03:00,10.0,8.0,-100.00,North,355,0.0,0.0,90,0.00,,,0.00,,2013-12-07 04:03:00,
2013-12-06 19:12:00,10.0,8.0,-100.00,North,355,0.0,0.0,90,0.00,,,0.00,,2013-12-07 04:12:00,
2013-12-06 19:22:00,10.0,8.0,-100.00,WNW,285,0.0,0.0,90,0.00,,,0.00,,2013-12-07 04:22:00,
2013-12-06 19:33:00,10.0,8.0,-100.00,WNW,285,0.0,0.0,90,0.00,,,0.00,,2013-12-07 04:33:00,
2013-12-06 19:43:00,10.0,8.0,-100.00,WNW,285,0.0,0.0,90,0.00,,,0.00,,2013-12-07 04:43:00,
2013-12-06 19:53:00,11.0,9.0,-100.00,WNW,285,0.0,0.0,90,0.00,,,0.00,,2013-12-07 04:53:00,
2013-12-06 20:03:00,11.0,9.0,-100.00,WNW,285,0.0,0.0,90,0.00,,,0.00,,2013-12-07 05:03:00,
2013-12-06 20:12:00,11.0,9.0,-100.00,WNW,285,0.0,0.0,90,0.00,,,0.00,,2013-12-07 05:12:00,
2013-12-06 20:22:00,12.0,9.0,-100.00,West,260,0.0,1.0,90,0.00,,,0.00,,2013-12-07 05:22:00,
2013-12-06 20:32:00,12.0,9.0,-100.00,West,260,0.0,1.0,90,0.00,,,0.00,,2013-12-07 05:32:00,
2013-12-06 20:43:00,12.0,9.0,-100.00,West,260,0.0,1.0,90,0.00,,,0.00,,2013-12-07 05:43:00,
2013-12-06 20:53:00,11.0,9.0,-100.00,NNE,20,0.0,0.0,90,0.00,,,0.00,,2013-12-07 05:53:00,
2013-12-06 21:02:00,11.0,9.0,-100.00,NNE,20,0.0,0.0,90,0.00,,,0.00,,2013-12-07 06:02:00,
2013-12-06 21:12:00,11.0,9.0,-100.00,NNE,20,0.0,0.0,90,0.00,,,0.00,,2013-12-07 06:12:00,
2013-12-06 21:22:00,12.0,9.0,-100.00,WNW,285,0.0,1.0,90,0.00,,,0.00,,2013-12-07 06:22:00,
2013-12-06 21:32:00,12.0,9.0,-100.00,WNW,285,0.0,1.0,90,0.00,,,0.00,,2013-12-07 06:32:00,
2013-12-06 21:43:00,12.0,9.0,-100.00,WNW,285,0.0,1.0,90,0.00,,,0.00,,2013-12-07 06:43:00,
2013-12-06 21:53:00,13.0,10.0,-100.00,NNE,15,1.0,1.0,90,0.00,,,0.00,,2013-12-07 06:53:00,
2013-12-06 22:02:00,13.0,10.0,-100.00,NNE,15,1.0,1.0,90,0.00,,,0.00,,2013-12-07 07:02:00,
2013-12-06 22:11:00,13.0,10.0,-100.00,NNE,15,1.0,1.0,90,0.00,,,0.00,,2013-12-07 07:11:00,
2013-12-06 22:22:00,14.0,11.0,-100.00,West,260,0.0,0.0,91,0.00,,,0.00,,2013-12-07 07:22:00,
2013-12-06 22:32:00,14.0,11.0,-100.00,West,260,0.0,0.0,91,0.00,,,0.00,,2013-12-07 07:32:00,
2013-12-06 22:42:00,14.0,11.0,-100.00,West,260,0.0,0.0,91,0.00,,,0.00,,2013-12-07 07:42:00,
2013-12-06 22:52:00,14.0,12.0,-100.00,ESE,115,0.0,0.0,91,0.00,,,0.00,,2013-12-07 07:52:00,
2013-12-06 23:02:00,14.0,12.0,-100.00,ESE,115,0.0,0.0,91,0.00,,,0.00,,2013-12-07 08:02:00,
2013-12-06 23:12:00,14.0,12.0,-100.00,ESE,115,0.0,0.0,91,0.00,,,0.00,,2013-12-07 08:12:00,
2013-12-06 23:21:00,14.0,12.0,-100.00,West,275,0.0,1.0,91,0.00,,,0.00,,2013-12-07 08:21:00,
2013-12-06 23:32:00,14.0,12.0,-100.00,West,275,0.0,1.0,91,0.00,,,0.00,,2013-12-07 08:32:00,
2013-12-06 23:42:00,14.0,12.0,-100.00,West,275,0.0,1.0,91,0.00,,,0.00,,2013-12-07 08:42:00,
2013-12-06 23:52:00,15.0,13.0,-100.00,North,10,0.0,2.0,91,0.00,,,0.00,,2013-12-07 08:52:00,